Location: Ferintosh
(52.7647°N, 112.9692°W)
Time: 14:22:39
(UTC+00:00)

Transit 2A - Pass Details

Date: 23 May 2024
Orbit: 593 x 959 km, 66.7° (Epoch: 14 June)

Event Time Altitude Azimuth Distance (km) Brightness Sun altitude
Rises 14:31:47 0° 319° (NW) 3,370 9.0 25.8°
Reaches altitude 10° 14:34:10 10° 315° (NW) 2,485 8.3 26.2°
Maximum altitude 14:39:52 59° 238° (WSW) 1,035 6.8 27.1°
Drops below altitude 10° 14:45:58 10° 160° (SSE) 2,654 9.2 28.0°
Sets 14:48:36 0° 157° (SSE) 3,615 9.8 28.4°
